Hayward, WI

5:02 PM CST on January 18, 2017 (GMT -0600)
Sawyer County

Weather History for KHYR - September, 2011

Change the Weather History Date:

Saturday, September 17, 2011

  Actual Average Record
Temperature  
Mean Temperature 46 °F -  
Max Temperature 61 °F 78 °F 84 °F (1998)
Min Temperature 32 °F 36 °F 32 °F (2011)
Degree Days  
Heating Degree Days 18    
Moisture  
Dew Point 40 °F    
Average Humidity 68    
Maximum Humidity 96    
Minimum Humidity 46    
Precipitation  
Precipitation 0.00 in - - ()
Sea Level Pressure  
Sea Level Pressure 30.26 in    
Wind  
Wind Speed 5 mph (SSE)    
Max Wind Speed 17 mph    
Max Gust Speed 21 mph    
Visibility 10 miles    
Events      
Averages and records for this station are not official NWS values.
T = Trace of Precipitation, MM = Missing Value Source: NWS Daily Summary

Daily Weather History Graph

Daily Weather History Graph

Search for Another Location

Airport or City:

Trip Planner

Search our weather history database for the weather conditions in past years. The results will help you decide how hot, cold, wet, or windy it might be!

Date:

Astronomy

Sep. 17, 2011 Rise Set
Actual Time 6:46 AM CDT 7:13 PM CDT
Civil Twilight 6:16 AM CDT 7:43 PM CDT
Nautical Twilight 5:40 AM CDT 8:18 PM CDT
Astronomical Twilight 5:03 AM CDT 8:55 PM CDT
Moon 9:22 PM CDT (9/17) 12:09 PM CDT (9/17)
Length of Visible Light 13h 27m
Length of Day
12h 27m
Waning Gibbous, 76% of the Moon is Illuminated
Sep 17
Waning Gibbous
Sep 20
Last Quarter
Sep 27
New
Oct 3
First Quarter
Oct 11
Full

Hourly Weather History & Observations

Time (CDT) Temp. Windchill Dew Point Humidity Pressure Visibility Wind Dir Wind Speed Gust Speed Precip Events Conditions
12:53 AM 33.1 °F - 32.0 °F 96% 30.31 in 10.0 mi Calm Calm - N/A   Clear
1:53 AM 33.1 °F - 30.9 °F 92% 30.30 in 10.0 mi Calm Calm - N/A   Clear
2:53 AM 32.0 °F - 30.9 °F 96% 30.31 in 10.0 mi Calm Calm - N/A   Clear
3:53 AM 32.0 °F - 30.9 °F 96% 30.31 in 10.0 mi Calm Calm - N/A   Clear
4:53 AM 34.0 °F - 32.0 °F 92% 30.31 in 10.0 mi Calm Calm - N/A   Clear
7:53 AM 43.0 °F 38.2 °F 39.0 °F 86% 30.33 in 10.0 mi SE 8.1 mph - N/A   Clear
8:53 AM 48.0 °F - 39.9 °F 74% 30.32 in 10.0 mi SSE 9.2 mph - N/A   Clear
9:53 AM 53.1 °F - 42.1 °F 66% 30.31 in 10.0 mi SSE 8.1 mph 18.4 mph N/A   Clear
10:53 AM 55.9 °F - 42.1 °F 60% 30.31 in 10.0 mi SSE 12.7 mph 20.7 mph N/A   Clear
11:53 AM 57.0 °F - 39.0 °F 51% 30.30 in 10.0 mi South 10.4 mph 20.7 mph N/A   Overcast
12:53 PM 57.9 °F - 39.9 °F 51% 30.29 in 10.0 mi SSE 17.3 mph 20.7 mph N/A   Overcast
1:53 PM 59.0 °F - 37.9 °F 46% 30.27 in 10.0 mi South 11.5 mph - N/A   Overcast
2:53 PM 60.1 °F - 39.9 °F 47% 30.25 in 10.0 mi South 13.8 mph 20.7 mph N/A   Overcast
3:53 PM 61.0 °F - 41.0 °F 48% 30.23 in 10.0 mi SSE 10.4 mph 16.1 mph N/A   Overcast
4:53 PM 61.0 °F - 42.1 °F 50% 30.22 in 10.0 mi Variable 5.8 mph - N/A   Overcast
5:53 PM 60.1 °F - 44.1 °F 55% 30.21 in 10.0 mi SSE 4.6 mph - N/A   Overcast
6:53 PM 57.9 °F - 44.1 °F 60% 30.21 in 10.0 mi SSE 4.6 mph - N/A   Overcast
7:53 PM 57.9 °F - 45.0 °F 62% 30.19 in 10.0 mi SE 6.9 mph - N/A   Overcast
8:53 PM 57.0 °F - 46.0 °F 67% 30.19 in 10.0 mi SSE 9.2 mph - N/A   Overcast
9:53 PM 57.0 °F - 46.9 °F 69% 30.18 in 10.0 mi SSE 12.7 mph 18.4 mph N/A   Overcast
10:53 PM 55.9 °F - 46.0 °F 69% 30.18 in 10.0 mi SSE 6.9 mph - N/A   Overcast
11:53 PM 55.9 °F - 46.0 °F 69% 30.17 in 10.0 mi SSE 9.2 mph - N/A   Overcast